Tracking 19831 objects as of 23-Aug-2019
HD Live streaming from Space Station
objects crossing your sky now

IRS P4 (OCEANSAT 1)

Track IRS P4 (OCEANSAT 1) now!
10-day predictions
IRS P4 (OCEANSAT 1) is classified as:


NORAD ID: 25758
Int'l Code: 1999-029C
Perigee: 722.9 km
Apogee: 726.4 km
Inclination: 98.1 °
Period: 99.1 minutes
Semi major axis: 7095 km
RCS: 3.5411 m2 (large)
Launch date: May 26, 1999
Source: India (IND)
Launch site: SRIHARIKOTA (SRI)

Transmits image of its own view; not currently used for scientific mission but operational.
aabbcc
Your satellite tracking list
Your tracking list is empty




NASA's NSSDC Master Catalog

Two Line Element Set (TLE):
1 25758U 99029C   19235.35353221  .00000024  00000-0  16342-4 0  9996
2 25758  98.0729 297.8221 0002511 350.0732  10.0414 14.52491195 72442
Source of the keplerian elements: AFSPC